GFSNGP_850_spd_000.txt.gz
Wind_Speed
21 21 19 24 28 28 31 32 29 23 29 24 22 20 20 25 23 17 16 18 25 30 34 35 35 37 35 32 29 28 27 27 26 24 29 36 39 40 42 44 48 46 44 39
17 22 24 23 26 27 26 27 31 33 31 23 31 32 31 30 29 21 22 21 26 28 29 30 30 29 26 26 25 24 24 24 23 27 31 35 37 38 45 53 54 51 49 41
16 15 20 24 27 27 29 27 24 25 28 30 27 22 29 31 27 25 26 25 28 30 27 25 25 24 23 21 21 21 21 23 25 31 30 29 27 32 40 52 53 49 49 38
12 1 13 15 19 23 26 28 24 20 17 24 21 22 26 27 19 25 22 20 22 25 23 22 21 20 19 18 20 22 22 23 24 25 23 21 23 25 30 41 50 47 41 36
11 14 11 18 8 17 22 25 28 21 20 12 12 14 16 12 13 18 18 19 21 23 23 23 24 24 23 22 21 21 21 21 21 20 21 21 21 22 26 33 35 30 30 25
8 14 18 3 12 17 14 15 23 25 17 21 14 12 13 7 8 13 18 18 22 24 27 28 29 28 27 24 21 19 17 17 16 18 19 18 18 19 20 26 28 27 28 25
11 10 8 11 13 6 9 8 21 21 24 20 16 3 8 12 12 15 20 23 28 27 28 31 31 28 24 21 17 14 15 16 18 18 20 18 19 17 19 20 20 23 23 24
7 9 15 10 2 1 15 17 8 13 17 17 17 19 19 20 22 26 29 27 29 31 30 25 23 20 17 14 12 14 16 18 19 20 21 21 20 18 19 19 22 19 19 23
11 8 5 7 1 3 7 4 9 15 23 27 32 29 29 28 26 29 30 28 24 23 22 20 19 15 13 12 13 14 17 19 19 19 21 19 17 19 19 18 18 19 18 17
9 5 9 10 8 8 5 9 19 18 23 24 25 28 26 21 22 22 20 19 18 16 15 13 11 12 12 11 12 13 16 18 19 21 21 16 14 15 15 13 12 14 15 16
5 6 14 16 12 9 6 9 16 19 20 19 20 22 25 22 18 17 16 13 11 10 11 12 12 10 9 10 12 16 18 19 20 18 17 16 15 15 12 15 14 12 12 11
6 11 12 14 12 4 13 16 16 20 24 23 23 23 22 22 17 12 14 11 8 8 9 9 9 9 10 13 15 16 17 16 15 14 11 11 12 18 18 15 13 11 11 11
5 8 19 21 12 8 15 17 18 22 21 19 19 20 18 17 14 12 14 11 6 4 6 8 10 12 12 13 14 15 14 13 11 13 13 13 11 12 10 17 15 12 12 13
19 24 17 17 16 13 11 15 17 17 15 14 14 12 11 10 9 9 9 7 5 2 4 7 10 12 13 13 11 10 11 10 11 13 13 10 10 11 11 11 9 12 14 13
24 25 20 19 21 9 9 11 15 11 7 9 10 10 9 8 6 5 3 1 1 2 3 5 9 10 11 10 10 8 6 10 12 12 9 8 9 10 12 12 10 10 13 13
16 17 17 18 14 10 11 11 10 8 6 9 9 11 9 8 5 2 0 1 2 4 3 5 9 11 13 12 12 10 11 15 14 7 7 8 8 8 8 9 11 13 11 10
20 17 20 12 13 12 15 11 8 7 7 11 12 11 11 9 5 4 3 1 1 2 2 5 11 12 14 14 13 9 8 11 14 11 10 8 7 7 7 8 10 11 11 12
14 13 15 8 7 8 7 5 4 6 7 6 6 6 8 6 6 7 6 4 2 2 3 8 11 13 14 14 12 9 12 13 12 7 4 5 7 7 8 10 10 10 11 15
12 8 5 5 6 4 3 3 4 4 4 7 5 7 8 9 8 7 6 5 3 5 5 7 13 11 13 14 13 11 11 9 7 7 8 9 9 9 10 11 11 11 12 12
9 7 6 6 7 5 4 5 4 3 4 4 3 7 7 8 8 6 6 10 8 7 9 12 11 12 12 11 9 9 8 8 7 7 7 7 9 11 11 11 11 11 11 12
8 7 8 10 11 8 7 5 6 6 6 7 7 6 6 7 7 6 5 6 6 9 9 11 8 8 8 10 10 8 6 6 6 6 6 7 10 11 11 11 11 11 13 13
6 6 7 7 8 9 8 7 7 8 8 8 8 7 7 7 6 5 8 9 7 9 7 8 8 11 8 8 6 5 5 5 5 5 6 7 8 9 11 11 11 11 11 11
7 7 9 11 8 6 7 9 9 7 6 6 7 6 7 6 6 5 6 5 3 5 5 5 6 7 6 5 4 5 5 4 4 4 6 7 9 10 11 12 11 11 11 11
6 5 5 6 8 5 7 9 10 9 7 6 6 6 7 7 4 5 3 2 0 3 4 5 5 3 3 3 4 4 4 5 5 6 7 8 7 9 10 12 14 14 13 13
9 7 8 8 9 10 9 10 6 8 8 3 4 4 3 5 6 6 3 3 3 1 5 7 7 7 7 7 9 9 9 10 9 9 10 10 10 11 11 11 12 14 14 14
11 11 10 10 9 9 9 9 10 9 9 8 8 8 8 8 8 7 6 6 5 6 5 8 8 11 10 12 13 13 13 13 13 12 12 12 12 12 13 14 14 14 13 14
14 14 12 11 11 11 10 10 10 10 10 9 10 10 10 9 10 10 10 10 11 11 11 12 12 13 12 14 14 14 15 15 15 14 14 14 13 13 13 13 13 14 14 14

GFSNGP_850_spd_003.txt.gz
Wind_Speed
25 24 19 23 29 30 33 30 28 24 30 26 25 22 20 25 22 24 21 15 18 26 32 38 42 44 45 41 39 35 35 34 37 38 37 40 43 47 45 43 44 43 43 38
20 23 24 24 22 30 29 32 33 33 31 25 28 32 22 25 24 24 25 19 18 23 29 34 39 40 43 44 38 36 36 37 36 37 39 43 46 47 45 46 46 44 43 40
20 21 18 23 27 25 24 27 27 29 30 27 29 26 26 34 30 31 33 33 22 24 31 35 38 37 38 41 40 36 38 36 34 39 41 44 43 42 41 43 48 43 51 47
17 16 21 16 19 26 27 26 26 27 24 24 25 37 39 33 30 35 36 40 24 24 28 31 31 30 34 33 40 38 38 35 37 40 41 39 36 33 31 32 45 47 46 35
16 18 10 16 3 3 11 17 22 25 25 28 26 28 36 48 41 32 30 31 21 24 29 31 33 34 35 33 35 34 32 36 37 40 37 32 31 27 24 26 34 40 40 33
14 23 24 17 11 8 6 14 15 17 16 27 20 17 11 27 23 23 24 25 20 23 30 31 32 32 35 33 33 35 32 33 34 32 30 27 23 22 20 22 23 24 22 25
18 17 16 6 5 4 8 9 16 16 22 29 21 21 2 5 10 18 21 20 20 25 29 31 31 31 31 31 30 28 26 26 28 28 27 23 21 19 18 20 19 23 20 21
18 22 23 7 7 6 8 16 17 17 19 27 29 5 4 5 10 14 18 22 26 27 29 29 30 32 31 29 27 28 28 27 26 26 24 21 19 19 18 17 17 16 19 17
18 14 9 11 12 7 8 9 9 6 7 6 3 5 7 10 13 16 19 24 26 27 31 28 27 27 25 23 26 27 26 27 27 27 24 21 19 18 18 15 14 14 13 12
11 12 9 13 12 11 10 5 8 12 12 14 17 19 20 22 24 27 27 27 27 26 26 22 19 17 17 18 20 21 26 24 26 27 24 21 18 18 16 15 14 13 13 13
16 15 18 16 15 12 10 10 15 17 22 18 19 18 19 19 20 20 20 23 21 19 18 18 16 15 13 15 16 16 19 22 22 23 23 20 16 15 12 16 16 12 9 7
8 19 21 18 17 16 18 15 15 16 18 13 14 15 17 15 16 16 17 19 20 18 16 15 13 13 12 15 17 19 22 22 23 21 21 19 18 19 18 14 15 15 9 10
12 24 29 24 22 18 17 15 15 15 13 10 12 14 14 16 16 17 15 16 16 15 14 13 13 11 12 15 17 18 17 18 17 16 17 17 15 14 14 19 14 11 10 10
20 24 18 12 12 19 18 15 12 13 13 15 15 13 13 12 11 14 15 13 12 10 11 13 11 12 12 12 14 15 15 17 16 16 17 15 14 13 12 8 9 10 15 12
22 21 21 18 15 17 20 22 16 16 15 16 15 14 13 11 9 8 6 8 5 6 6 9 11 10 12 13 13 16 14 14 14 15 15 14 13 12 11 11 8 12 9 12
23 26 25 24 20 15 18 13 15 13 14 14 14 12 11 8 5 3 4 4 3 1 4 7 10 11 12 12 13 11 12 16 15 15 11 10 11 11 10 10 9 14 7 6
15 16 23 28 20 14 16 15 3 11 8 8 11 10 6 6 8 7 5 3 1 2 4 5 11 15 14 13 13 11 11 17 15 12 11 11 9 8 8 8 9 9 10 15
20 19 19 22 12 4 4 2 3 4 2 2 3 3 5 6 6 5 3 1 2 3 5 7 10 14 16 15 14 12 12 13 13 12 12 9 8 7 6 8 8 7 8 10
15 13 8 6 6 4 5 4 0 3 2 3 3 4 6 5 5 4 3 2 1 2 3 8 12 13 16 15 14 12 13 13 13 11 9 8 8 7 8 10 10 8 6 7
11 8 5 6 8 9 7 4 6 5 4 5 4 3 5 5 5 4 5 5 2 2 4 7 12 11 12 16 13 11 11 11 10 11 11 9 10 10 9 9 11 7 8 11
10 10 8 8 10 9 9 9 8 7 6 5 6 6 6 5 5 10 6 4 4 4 7 10 6 8 8 11 11 9 11 11 11 8 10 9 10 11 12 10 8 9 15 13
9 9 8 8 9 10 10 8 7 7 6 6 6 6 6 6 5 4 7 6 5 7 5 5 5 7 6 8 4 4 7 7 6 8 9 9 10 11 11 10 10 10 11 10
9 11 11 10 8 9 9 8 10 9 8 6 7 7 7 6 6 4 8 6 3 4 5 6 5 7 7 3 4 5 5 5 6 7 7 8 9 9 10 10 11 11 12 12
8 7 5 5 9 9 8 6 4 6 5 3 5 4 4 6 7 6 4 4 2 0 3 2 4 5 4 4 6 6 6 5 7 8 8 9 9 10 10 10 11 13 14 13
6 7 7 10 8 6 3 5 5 1 3 3 2 2 1 3 3 4 5 2 5 3 5 8 5 7 7 9 11 10 11 11 11 10 10 10 11 11 11 11 11 10 12 13
13 15 13 11 11 13 14 13 12 10 9 12 11 11 8 8 6 5 4 4 6 5 5 10 9 8 6 10 13 13 13 14 12 12 11 11 12 12 11 12 13 13 12 13
13 14 11 11 11 12 11 11 12 13 15 7 10 11 12 10 9 8 8 10 9 8 9 8 9 9 13 12 12 14 15 15 13 13 12 13 12 13 13 13 12 12 13 13

GFSNGP_850_spd_006.txt.gz
Wind_Speed
28 29 25 25 29 29 27 26 22 21 27 18 22 15 18 21 13 13 10 20 18 21 30 43 45 50 50 46 47 45 46 45 46 46 46 45 44 46 45 43 44 41 41 40
24 25 27 24 27 28 29 29 27 26 25 21 21 29 12 21 17 22 21 17 24 26 25 29 43 49 52 51 49 47 47 48 45 45 45 45 44 43 42 40 38 39 39 39
21 25 23 24 26 22 23 24 25 22 23 17 19 15 14 16 20 26 23 24 18 21 27 30 34 49 54 54 49 49 48 49 46 45 47 46 43 42 42 41 41 38 40 41
17 19 24 17 19 24 23 18 20 23 21 18 19 25 26 27 21 24 27 32 30 31 25 26 29 37 45 46 48 48 47 47 47 46 47 44 42 42 42 41 39 38 34 35
15 17 15 19 18 12 9 13 16 17 17 18 23 24 24 29 29 28 35 28 34 30 29 30 31 35 40 45 50 46 48 45 47 43 43 43 42 41 39 37 33 29 31 32
13 17 23 20 7 6 4 9 10 11 11 13 15 15 13 25 29 32 38 33 20 24 33 31 34 37 41 41 47 50 48 48 41 41 42 42 39 35 32 29 24 21 25 27
12 14 15 7 4 6 10 2 7 8 10 12 10 11 25 13 9 16 35 31 27 17 23 29 36 36 40 41 42 45 38 36 35 36 38 36 32 26 24 19 19 19 21 22
11 11 15 15 18 18 4 3 6 10 12 14 14 19 20 8 5 11 8 3 7 17 25 30 34 34 35 33 29 31 32 31 32 34 32 25 19 17 18 18 20 19 17 18
12 11 9 8 11 8 8 8 15 16 16 15 16 11 5 1 1 4 2 5 10 13 17 21 25 30 31 28 28 30 29 30 32 29 27 26 21 21 18 17 17 15 13 15
15 13 4 14 11 10 14 22 22 25 27 26 14 5 8 7 6 8 10 13 17 20 20 22 24 26 27 27 30 31 32 31 29 26 22 19 17 16 15 15 15 12 13 13
14 15 15 14 12 13 21 21 22 25 28 28 24 27 22 29 26 25 25 24 23 24 22 24 25 27 27 28 29 30 28 26 24 23 23 22 22 19 16 17 15 15 13 9
1 13 17 15 14 17 23 24 23 25 24 28 28 27 22 26 25 25 24 23 21 18 17 19 21 21 22 22 22 22 23 21 24 26 25 27 22 19 18 16 16 15 12 14
5 6 36 30 25 24 27 25 24 23 20 20 20 19 25 18 22 20 20 16 16 16 16 18 19 22 21 19 16 19 24 25 24 24 23 23 21 19 17 16 14 14 14 14
28 21 18 22 18 22 25 25 24 23 21 19 16 15 16 17 8 15 15 14 14 15 16 15 12 15 17 18 19 21 24 24 23 20 19 18 18 17 13 11 16 14 13 12
17 22 20 21 21 25 26 23 26 23 21 20 15 13 11 11 9 9 10 7 8 12 12 14 15 14 12 17 22 19 17 19 18 21 16 17 17 14 19 15 13 14 13 7
23 22 17 19 19 19 16 16 20 21 22 19 17 14 13 12 11 11 11 8 8 9 11 11 14 15 13 13 17 15 17 16 15 14 20 20 17 13 12 11 17 17 11 10
24 21 19 19 16 14 14 15 18 14 13 16 16 16 15 14 11 12 16 10 8 8 7 4 12 14 12 13 14 12 11 15 12 16 17 12 11 11 13 12 11 10 11 9
18 17 20 19 16 14 14 16 17 10 12 8 7 8 8 7 8 11 4 4 1 1 3 5 5 11 12 10 12 12 14 13 11 12 14 14 11 11 8 7 3 9 13 14
17 11 8 6 9 8 7 5 7 6 7 2 3 2 7 10 9 8 6 5 5 6 3 2 3 6 14 15 12 11 13 14 13 11 15 14 11 8 8 8 9 5 4 6
9 7 8 12 9 9 9 6 6 7 7 7 10 9 10 13 12 7 9 7 7 6 3 2 6 5 12 14 11 6 7 12 16 11 12 11 10 14 10 10 6 5 8 10
9 12 15 20 17 11 11 10 10 12 10 9 10 9 10 8 10 13 10 7 7 10 8 6 5 5 3 10 11 10 14 9 11 12 14 13 10 7 10 12 12 12 10 11
14 16 16 13 17 17 16 14 11 8 10 11 9 9 12 7 11 11 14 14 10 8 10 9 6 6 5 7 0 2 7 7 5 3 3 5 5 6 5 5 13 13 11 12
14 11 14 16 12 13 12 11 11 10 9 8 8 7 9 7 4 8 10 7 7 5 5 6 6 4 7 5 1 1 1 3 2 3 4 4 4 6 7 8 8 7 10 9
9 13 8 12 12 12 13 8 9 10 4 9 9 9 8 8 7 7 7 8 12 3 4 4 3 1 4 3 3 3 3 2 3 4 6 6 6 6 8 8 9 11 12 12
8 16 19 20 15 16 18 19 14 19 10 7 10 17 6 9 8 9 7 3 7 5 5 6 7 5 4 8 8 8 7 7 7 10 9 7 7 7 9 9 10 10 10 9
13 20 17 19 17 15 14 15 13 12 15 11 8 11 12 10 6 12 9 9 10 6 8 11 7 5 7 8 7 8 10 9 12 13 13 12 8 9 12 10 9 10 10 11
15 16 14 14 14 14 14 14 15 14 11 11 11 14 15 11 10 12 11 12 11 13 11 9 7 11 8 11 13 17 16 6 12 11 6 9 10 8 12 11 10 12 11 11

GFSNGP_850_spd_009.txt.gz
Wind_Speed
17 17 18 25 15 25 22 20 15 13 19 13 17 10 11 14 24 27 18 25 45 50 54 49 54 55 54 55 54 49 48 48 47 45 44 44 44 42 43 47 46 43 42 43
8 12 21 21 19 19 26 23 19 17 20 6 12 20 9 19 24 20 9 20 36 38 41 49 53 55 56 55 54 50 48 48 47 46 46 46 46 43 42 41 44 44 42 41
10 7 8 15 27 20 11 23 21 19 19 8 10 8 4 22 26 12 12 26 32 32 40 48 50 50 56 57 56 55 50 49 48 46 46 47 47 44 43 40 37 38 39 38
6 6 8 10 9 12 14 7 13 10 12 11 12 26 16 9 7 2 10 15 24 27 29 28 39 52 51 57 59 57 54 51 49 48 46 45 45 44 42 40 38 36 34 34
5 8 3 8 11 4 7 10 1 8 8 4 4 11 13 18 17 21 27 38 28 23 30 28 34 37 54 56 61 59 58 54 53 49 48 48 47 42 43 39 37 36 32 32
3 6 14 5 5 9 5 2 6 10 8 8 8 3 4 12 7 17 31 30 33 36 27 30 37 39 45 56 59 62 60 59 56 53 50 51 47 43 41 33 25 27 29 27
5 6 4 4 5 6 4 4 4 11 8 7 3 2 14 14 5 2 8 17 22 32 32 26 27 40 43 47 56 62 60 53 54 50 50 49 42 39 30 26 27 26 23 20
4 4 3 8 8 6 3 11 15 17 15 8 10 13 12 9 7 5 6 3 4 17 38 33 25 44 47 47 48 45 43 43 41 45 45 41 34 29 26 28 28 23 18 17
8 5 3 14 10 1 14 20 19 19 18 16 23 27 21 9 3 3 3 8 10 9 26 32 33 42 44 42 40 39 40 39 39 39 34 32 29 29 28 23 19 17 16 17
8 8 3 8 11 21 19 19 17 19 22 22 24 20 20 16 8 5 0 16 18 22 23 22 28 34 36 36 35 39 41 37 33 29 28 26 24 22 21 19 17 15 16 16
6 5 9 25 17 29 30 24 24 27 28 25 23 25 22 17 14 12 14 22 24 28 28 24 24 28 31 32 35 37 36 33 31 29 28 26 23 21 18 17 15 14 12 13
2 11 8 6 25 27 31 27 28 30 29 26 20 20 15 17 12 8 8 22 35 34 34 31 27 29 29 27 25 27 27 28 28 29 27 26 26 24 20 16 16 17 16 13
3 21 27 27 32 29 34 31 30 30 26 26 25 15 9 12 3 6 10 51 6 30 32 26 23 22 19 21 22 23 28 28 27 28 28 26 23 19 21 20 19 18 15 13
13 24 25 28 21 24 30 31 34 33 32 32 24 27 13 9 8 11 14 50 22 16 19 17 20 22 20 18 18 20 24 24 28 29 27 24 21 19 17 19 18 20 17 14
17 21 26 13 27 25 25 26 32 32 31 32 29 26 26 24 22 16 10 17 12 17 15 14 15 15 13 13 15 19 22 22 22 22 22 24 25 20 15 14 18 18 18 16
19 23 23 18 15 5 13 20 27 28 27 27 29 27 22 19 18 17 20 20 21 17 3 6 11 11 9 12 14 16 15 15 16 18 22 21 21 19 21 21 16 15 15 16
19 17 15 14 10 13 17 18 24 17 21 25 23 22 17 17 20 15 14 17 19 18 13 9 8 8 8 7 10 11 10 16 8 15 21 21 20 19 19 19 19 17 15 11
16 16 14 13 14 16 12 12 15 17 20 17 14 18 20 21 14 13 14 13 12 11 10 5 5 7 11 12 11 14 16 16 16 18 21 22 18 17 9 15 20 22 17 13
8 5 3 4 7 9 12 13 14 13 14 13 11 11 13 12 15 15 15 12 13 15 11 6 4 4 5 7 11 10 14 11 20 20 20 19 21 17 10 5 12 15 11 15
16 11 10 6 10 16 12 16 14 15 15 14 14 14 14 15 11 10 10 11 7 6 3 4 4 3 6 7 12 10 10 8 11 14 17 15 15 15 11 7 6 8 10 12
14 25 17 21 18 19 18 17 18 18 16 16 16 17 15 13 13 13 16 15 14 11 8 9 6 5 4 4 5 5 8 13 17 15 13 11 12 11 13 11 8 12 11 10
25 22 20 21 25 27 25 16 12 15 14 14 14 18 12 13 13 16 17 14 11 8 10 10 8 8 12 9 8 2 7 7 4 5 12 7 2 3 10 6 10 13 11 10
23 19 19 21 21 18 14 18 14 12 16 16 15 18 16 9 12 13 13 16 10 8 7 9 7 6 10 12 7 6 8 7 7 4 9 9 6 1 2 4 6 9 11 13
20 21 23 25 28 27 25 23 18 16 13 18 22 21 23 18 11 7 9 15 16 7 12 9 7 5 1 4 8 14 6 7 3 4 5 7 10 12 9 10 9 6 6 6
18 27 26 28 28 23 22 19 19 19 17 18 21 22 14 22 20 14 13 14 12 8 11 12 8 8 9 8 10 9 5 5 2 5 9 11 10 9 8 8 9 10 11 13
24 27 25 23 26 26 21 17 21 18 15 15 15 15 11 8 12 16 17 18 19 15 13 11 8 9 9 12 11 7 6 4 1 5 7 5 4 12 11 13 8 11 13 13
23 21 22 24 22 26 21 18 18 16 15 17 13 12 9 10 8 7 10 11 18 16 19 12 12 14 12 8 11 12 8 5 4 5 1 9 11 10 10 13 13 12 15 15

GFSNGP_850_spd_012.txt.gz
Wind_Speed
13 17 20 17 10 19 21 21 21 21 12 9 10 9 10 21 22 27 35 34 33 46 53 54 54 56 56 58 60 58 55 51 49 44 43 42 40 40 42 43 46 46 44 42
7 13 25 23 19 22 18 21 20 9 8 11 15 24 14 23 21 27 32 38 33 46 57 56 58 58 57 58 59 59 58 55 49 45 46 46 44 42 41 43 43 44 44 43
6 9 16 17 33 21 15 11 16 15 10 10 9 9 12 20 18 23 27 30 36 46 51 56 60 59 56 56 57 58 58 56 52 47 47 47 46 43 42 42 41 40 42 42
6 7 15 5 19 14 8 7 10 15 11 14 15 30 31 26 18 13 25 21 31 46 49 60 60 55 55 56 57 58 57 56 54 50 48 48 48 45 43 40 38 34 33 32
4 3 7 3 3 9 8 5 3 7 10 7 15 11 4 20 23 24 19 14 19 32 48 50 52 53 54 54 55 56 57 56 55 52 49 49 48 45 41 38 36 32 28 28
4 3 5 3 2 7 7 2 6 1 7 7 8 9 4 4 14 25 26 26 26 24 19 21 47 48 49 54 55 57 58 57 55 55 51 48 46 44 40 36 32 28 26 29
8 5 6 5 15 2 8 7 2 3 4 5 6 5 7 4 6 8 17 26 29 33 33 30 29 45 48 53 58 55 52 56 59 58 55 49 45 45 39 34 28 26 28 31
4 4 6 21 15 4 6 5 16 13 12 20 17 15 15 12 11 6 8 11 19 27 35 39 41 41 47 54 52 50 58 55 53 57 55 51 48 46 35 30 27 31 33 25
5 5 14 17 5 12 9 18 10 15 15 17 18 17 17 16 13 7 7 13 18 21 27 36 39 42 46 44 48 53 52 49 49 49 51 51 50 40 35 36 35 33 28 26
2 1 13 23 13 14 19 23 20 18 16 15 19 18 18 14 8 4 3 1 5 11 17 29 33 45 49 51 50 53 48 47 49 48 48 47 41 37 38 39 34 30 25 21
2 5 21 21 18 13 20 22 22 22 21 19 19 21 18 16 14 10 8 7 8 11 8 11 19 38 46 43 48 50 48 46 43 42 41 42 42 37 34 31 29 27 22 20
1 10 6 10 5 21 23 20 22 24 22 21 19 20 17 17 18 18 12 13 13 21 25 30 20 20 36 37 42 45 43 43 40 39 38 37 28 22 21 21 20 19 19 18
3 26 8 20 23 20 28 26 19 26 32 30 21 21 22 18 20 21 13 13 20 28 37 49 56 55 19 42 39 35 35 38 36 30 24 24 21 20 28 28 26 24 23 21
20 21 19 22 17 20 27 26 28 30 29 33 33 29 25 26 28 24 22 18 20 23 22 41 8 55 30 21 25 23 23 27 27 32 32 33 34 39 34 31 30 27 22 20
11 20 31 27 26 20 23 21 26 33 34 34 27 28 29 32 32 31 25 15 13 20 16 14 16 21 10 7 12 17 18 21 24 27 29 31 27 24 23 25 25 22 22 23
20 16 21 22 18 18 22 24 25 23 26 24 25 22 21 23 26 26 25 23 19 20 17 19 18 14 14 18 14 16 14 13 18 22 24 25 25 23 20 17 12 13 17 21
24 16 19 14 14 13 13 15 13 18 22 21 22 13 14 15 17 19 17 19 22 25 21 18 16 14 14 14 16 15 17 14 13 14 16 14 17 20 16 11 16 16 20 19
20 15 11 16 18 18 18 11 10 10 14 13 16 17 18 20 21 19 14 9 13 19 21 19 16 10 8 7 6 10 14 13 12 9 6 9 13 15 20 22 20 19 21 22
15 8 11 15 13 12 10 10 7 7 9 14 17 21 19 18 17 16 17 18 17 8 10 11 12 12 10 8 7 6 7 4 7 11 12 22 21 21 18 21 21 20 20 21
20 18 15 13 14 18 18 16 18 18 15 14 16 19 23 20 16 16 18 22 22 22 15 4 3 3 12 5 2 7 13 13 19 15 15 15 15 15 17 18 20 22 22 22
20 20 23 23 25 24 22 19 20 20 21 16 19 21 21 20 22 20 22 23 19 16 14 13 14 9 5 1 2 5 7 10 12 12 13 10 14 15 17 18 17 18 18 18
20 22 28 27 26 25 23 23 21 21 25 22 15 16 19 21 21 24 21 19 17 16 17 17 17 19 14 9 5 2 3 7 12 14 13 15 14 16 16 14 18 16 15 15
32 30 31 32 32 28 28 25 28 30 29 29 28 20 17 17 18 23 23 19 17 17 16 16 13 9 14 19 7 8 8 8 10 10 10 12 13 11 8 13 12 11 14 16
33 34 36 30 28 30 26 23 24 24 27 27 26 23 21 18 18 19 19 14 13 14 15 14 9 9 8 12 15 13 9 9 10 8 7 8 6 7 9 10 7 6 7 7
33 33 32 32 32 30 26 23 21 19 19 18 21 19 20 22 21 20 19 18 17 15 14 13 10 10 13 15 13 11 9 5 3 8 9 9 7 6 8 9 7 9 11 11
26 27 31 30 27 26 24 19 22 20 19 20 21 20 16 15 13 15 14 17 17 18 21 20 18 13 12 10 8 9 9 8 2 2 0 3 10 13 14 15 15 14 14 13
26 24 22 25 25 23 25 19 18 21 17 15 16 16 12 13 14 13 15 19 19 19 18 20 21 20 19 16 12 9 5 8 8 8 8 4 2 6 8 10 12 13 16 18

GFSNGP_850_spd_015.txt.gz
Wind_Speed
5 13 14 15 12 25 20 23 16 18 12 14 10 11 12 24 17 14 22 31 40 38 42 47 49 50 53 54 54 55 55 57 56 53 47 46 46 42 42 42 42 43 43 41
5 9 10 15 20 25 24 23 18 17 8 9 15 24 11 23 25 19 17 28 39 47 49 53 52 53 54 56 54 53 54 56 55 53 51 49 48 45 43 44 42 42 43 44
5 8 11 11 25 20 23 13 17 19 9 8 11 11 14 29 35 34 30 31 34 40 49 49 50 53 55 54 53 52 52 53 55 54 52 52 51 48 46 46 44 43 44 42
5 6 8 10 9 17 18 8 9 5 10 12 15 33 39 38 31 27 22 16 24 35 41 47 47 44 50 54 54 53 51 52 53 55 53 53 54 52 49 48 46 43 42 40
3 3 9 12 4 9 13 14 7 12 10 8 22 11 11 31 31 27 27 26 22 24 41 45 43 42 46 53 52 52 52 52 52 54 54 55 54 54 52 49 47 45 39 36
3 4 6 0 18 25 14 17 9 10 11 10 11 7 12 22 20 21 25 25 19 16 23 39 44 43 44 52 54 54 52 51 51 53 55 56 53 53 51 50 48 44 35 34
11 5 8 9 25 16 5 8 7 10 8 9 7 10 18 14 8 8 9 15 17 15 16 19 31 41 43 48 53 51 50 51 52 54 54 55 55 52 51 49 46 39 34 33
8 8 8 16 12 9 10 24 5 16 13 17 15 13 12 10 8 9 10 7 5 3 5 17 21 28 40 46 45 51 53 50 52 53 54 53 54 53 49 45 41 37 36 34
6 6 2 8 12 24 20 14 18 11 19 20 21 18 17 17 13 13 12 11 11 9 8 6 1 14 24 36 44 47 49 53 53 50 51 49 51 51 46 42 37 39 38 38
3 6 3 15 22 24 23 16 10 10 17 22 25 20 19 15 13 11 9 6 8 12 15 13 15 14 9 21 33 39 47 53 55 57 54 48 49 47 46 43 41 41 40 36
5 5 2 14 14 23 15 11 15 17 22 26 25 23 21 20 17 14 11 7 4 4 10 17 20 20 20 21 20 29 41 48 47 50 51 47 43 43 44 45 41 40 33 25
7 6 3 8 8 10 14 17 17 24 26 25 23 22 19 21 18 14 11 11 11 11 12 16 22 28 31 30 25 21 30 42 47 48 47 47 49 47 41 38 26 17 15 2
3 12 18 23 11 9 23 23 25 26 26 29 26 23 20 21 18 15 13 13 13 13 14 15 19 26 32 38 35 29 27 34 45 49 50 48 41 42 38 30 14 3 14 27
20 19 16 27 21 13 22 27 31 31 29 29 28 28 25 22 17 15 14 15 15 17 17 17 21 22 24 22 28 36 37 17 38 45 46 47 38 34 29 18 20 16 31 27
29 10 32 37 26 23 23 28 33 32 29 28 27 26 24 24 26 24 17 14 18 18 22 19 17 19 10 25 22 20 32 34 17 19 52 44 30 10 16 24 37 44 34 31
22 23 29 38 22 21 24 27 31 27 25 24 23 22 21 19 18 21 24 19 16 21 25 27 29 22 17 10 19 9 27 14 51 32 18 25 33 32 30 36 35 35 34 35
22 14 22 27 25 24 25 22 25 26 23 23 21 22 17 13 14 17 17 18 18 22 23 23 25 23 21 18 18 25 23 22 25 31 32 33 33 33 32 29 30 31 27 23
20 18 20 26 24 21 19 18 20 21 21 16 17 15 17 17 20 17 11 6 10 16 20 21 20 19 17 17 20 21 20 22 20 21 21 23 29 31 31 31 30 31 30 27
23 23 21 20 19 16 13 11 16 19 18 19 17 18 21 20 20 20 19 23 23 19 17 15 12 13 14 15 13 7 6 8 16 21 21 21 22 21 17 18 21 24 25 26
25 21 18 16 15 19 19 18 17 19 20 20 24 26 26 24 22 24 27 31 30 25 18 18 14 14 9 13 11 9 9 8 7 9 10 15 18 18 22 24 25 23 24 26
28 26 29 31 28 27 26 24 23 24 22 25 28 27 26 25 24 25 30 32 27 22 23 21 19 16 15 14 15 13 12 10 10 9 6 5 8 10 15 14 14 17 19 23
38 38 34 39 37 35 32 31 25 20 23 23 22 22 25 26 24 24 25 26 23 20 22 23 22 19 15 15 14 12 10 7 4 2 9 8 8 9 7 10 10 14 17 18
38 36 35 33 35 35 33 31 30 27 25 21 21 21 21 20 19 19 21 20 20 21 22 25 24 20 18 13 13 11 11 9 6 9 5 2 7 5 9 8 10 11 12 14
36 36 34 30 26 28 27 25 27 29 29 29 29 27 26 26 25 25 23 20 20 19 22 22 21 19 22 23 19 13 9 6 5 5 6 8 9 10 6 2 5 8 8 10
29 28 28 28 27 25 21 20 20 19 17 19 21 22 21 22 25 23 18 16 13 14 16 17 18 19 19 14 15 21 20 15 7 2 2 5 7 10 11 10 13 13 11 11
29 30 27 26 24 23 21 17 20 20 19 21 22 21 19 19 19 15 16 17 16 15 16 16 17 17 17 16 16 14 11 9 12 12 12 7 3 7 10 13 16 16 14 13
23 22 22 22 22 22 20 19 18 19 18 18 20 20 19 17 16 15 15 17 18 17 16 15 14 14 14 13 12 11 11 11 11 11 9 6 6 5 4 4 3 10 12 17

GFSNGP_850_spd_021.txt.gz
Wind_Speed
2 4 4 8 10 11 16 22 22 20 26 20 18 18 20 16 12 17 23 21 20 20 23 26 34 41 43 44 47 46 48 49 48 47 47 49 51 47 46 46 43 41 40 39
5 9 10 12 12 13 15 17 16 21 23 14 8 20 26 31 31 27 32 24 21 24 23 21 22 32 39 42 46 47 48 47 46 46 45 47 48 46 45 46 45 43 44 43
5 5 10 14 21 16 15 14 15 21 17 13 15 17 20 27 30 30 35 38 38 35 30 24 22 24 31 39 43 46 47 46 47 46 46 45 45 45 44 46 45 46 46 45
5 3 9 4 3 6 11 14 19 22 19 17 16 24 28 33 31 36 41 39 39 35 35 35 30 28 27 33 38 41 43 43 45 46 46 46 46 45 44 46 47 48 47 48
5 11 16 16 5 1 4 12 6 8 17 21 26 29 25 27 34 42 42 46 40 36 33 29 30 27 29 32 35 38 39 41 43 45 45 45 47 45 45 45 48 49 49 48
4 9 11 3 7 3 4 13 5 7 12 10 17 15 14 29 31 33 32 31 27 24 18 13 19 20 25 31 34 36 37 40 39 41 42 42 45 46 45 44 46 50 51 49
14 9 7 10 3 2 8 1 11 11 16 16 10 14 19 19 22 22 25 23 20 22 22 19 19 18 21 25 32 34 34 34 34 36 38 39 41 40 42 43 45 50 53 52
12 11 19 13 12 9 5 9 15 19 18 24 22 23 23 18 15 14 15 16 18 20 19 17 14 12 11 13 16 18 20 23 28 29 31 33 37 38 40 40 42 47 50 53
9 9 14 18 18 19 12 16 19 20 21 20 23 18 15 12 14 15 16 16 16 16 17 15 14 12 11 11 11 12 15 17 20 22 26 29 33 37 40 41 44 43 44 43
10 15 20 26 25 22 17 17 20 18 19 18 15 12 11 11 14 20 21 24 24 22 23 23 19 15 12 10 7 6 7 10 14 19 24 27 30 33 39 39 42 42 43 46
12 16 23 27 24 21 18 18 15 11 10 6 7 7 10 12 11 11 19 20 19 19 19 18 15 12 9 7 5 5 6 8 11 15 21 26 30 33 39 44 44 46 47 47
9 8 13 21 17 17 18 16 9 5 5 7 9 12 15 17 14 13 15 16 17 16 16 14 11 9 5 2 2 5 7 9 12 16 20 24 29 35 40 44 44 47 47 47
18 16 24 26 24 24 19 11 8 6 4 16 13 15 14 17 18 17 16 17 18 18 17 14 11 9 7 6 7 9 10 12 11 12 13 17 23 33 39 43 45 45 44 47
25 21 25 25 21 15 17 14 14 8 11 19 18 17 19 20 20 21 22 22 22 21 21 19 16 13 12 11 10 11 12 12 10 11 12 12 13 24 32 41 41 50 53 52
27 27 31 25 21 22 16 16 16 13 15 26 26 23 24 22 21 19 16 16 20 22 23 22 21 18 16 15 14 12 14 14 10 9 9 9 10 13 11 18 44 54 55 53
15 14 18 23 17 16 18 24 21 18 14 20 30 31 27 24 25 23 21 17 19 23 23 22 23 25 21 20 19 18 15 10 8 7 5 7 11 23 21 8 8 7 40 69
19 16 12 8 16 17 16 19 25 21 20 23 26 24 21 22 24 23 22 14 20 24 24 23 21 17 18 20 21 23 20 14 13 13 7 12 15 9 15 5 2 3 23 17
16 20 22 8 18 19 17 22 18 21 26 31 32 32 28 23 22 17 15 15 20 25 22 20 18 15 13 15 16 17 19 20 17 15 12 8 5 5 2 9 11 19 24 25
23 23 23 10 24 24 21 23 24 27 34 35 36 39 36 30 29 26 26 27 30 30 26 21 17 16 14 14 13 15 17 18 18 16 13 10 7 6 5 9 7 9 16 25
41 33 31 33 35 34 33 30 28 34 40 41 40 37 33 29 28 28 30 32 30 28 25 23 18 17 17 16 17 20 22 21 18 18 16 16 15 15 12 8 9 15 24 24
44 43 44 45 41 35 28 30 32 37 38 34 35 34 32 29 28 31 33 38 33 28 26 26 25 24 18 14 14 15 18 19 20 21 19 15 11 12 10 8 5 7 8 7
39 38 40 42 36 31 29 31 31 33 33 33 32 30 31 32 33 33 32 30 27 29 30 31 31 29 28 27 22 20 20 20 20 19 20 18 18 17 16 15 11 9 11 11
34 37 36 33 33 32 32 33 33 33 32 31 30 29 30 31 28 27 29 28 27 25 27 28 23 21 24 25 28 29 27 24 20 18 19 17 17 15 14 14 13 12 14 12
31 31 32 30 30 31 32 30 29 29 29 28 26 25 26 26 27 27 25 22 20 21 22 21 22 22 23 25 25 23 20 20 23 23 21 18 16 15 15 13 12 11 13 11
28 26 26 26 27 25 25 26 27 27 26 26 26 26 25 24 23 21 19 19 16 16 17 18 18 18 20 22 22 23 24 23 21 18 16 16 18 20 17 14 12 11 11 7
21 21 20 19 19 18 17 17 20 20 21 24 24 22 21 20 18 16 15 14 13 15 16 17 18 17 17 17 17 17 18 18 18 19 19 18 18 17 15 17 18 17 15 13
14 12 12 12 14 14 13 13 15 18 18 18 19 17 16 15 14 14 14 14 15 14 13 13 13 13 12 12 12 13 13 13 13 14 14 14 14 14 13 13 14 14 13 12

GFSNGP_850_spd_024.txt.gz
Wind_Speed
15 2 6 18 28 30 30 26 23 18 20 17 7 8 7 10 13 11 6 4 8 13 17 20 22 27 33 33 35 36 42 40 47 48 49 51 52 51 49 48 47 45 44 43
14 10 7 10 12 13 22 27 26 25 22 11 11 7 17 18 18 20 22 22 21 16 17 16 19 23 25 32 35 37 41 47 45 44 44 44 47 50 50 50 49 47 47 47
15 10 10 15 20 19 18 17 17 21 16 17 17 16 20 22 22 22 21 22 20 18 19 19 20 21 23 25 27 36 42 42 44 45 44 44 42 44 46 48 47 49 49 50
6 6 15 11 10 20 23 18 19 18 17 15 15 20 23 24 24 26 25 24 23 23 21 21 20 19 18 20 24 31 40 40 43 44 44 36 40 42 43 44 46 48 50 50
10 12 9 5 3 8 11 17 17 15 9 12 18 24 28 26 26 26 28 27 26 26 25 25 23 21 19 21 23 28 36 34 38 40 38 38 41 42 42 41 43 47 48 50
7 15 14 4 16 2 2 9 6 6 8 9 9 10 12 24 26 25 25 26 25 22 20 20 22 22 21 22 24 30 33 32 33 35 38 40 39 40 41 41 41 37 41 49
13 11 9 8 8 2 11 4 6 4 7 10 9 13 22 25 23 20 18 20 20 21 21 22 19 17 20 22 26 26 25 26 30 32 34 35 35 37 39 40 36 39 42 45
13 16 21 7 9 12 11 12 13 13 13 15 16 18 25 25 28 26 23 19 18 16 16 16 20 18 20 23 20 21 22 24 27 29 29 28 34 35 34 34 37 40 40 40
9 11 13 7 12 14 19 19 18 22 22 22 23 21 23 23 20 20 18 15 11 11 11 9 13 13 15 15 17 18 20 22 22 23 25 28 30 27 29 33 34 35 36 39
17 21 22 19 24 22 17 23 22 23 24 23 27 25 20 17 13 10 6 3 2 4 6 7 8 10 10 12 13 13 14 15 16 18 20 21 22 24 26 28 31 34 34 39
19 21 24 25 25 25 24 20 20 22 23 22 24 20 15 9 7 6 4 3 6 6 6 8 9 11 11 13 13 9 10 11 12 13 17 18 21 22 25 28 30 31 35 35
15 16 20 24 22 14 18 19 20 21 21 20 17 10 8 6 8 7 7 8 9 9 7 9 9 8 8 9 9 9 7 6 8 10 12 15 17 20 26 31 30 35 39 37
23 24 18 20 20 23 24 25 24 22 19 17 15 10 10 9 8 11 13 13 14 14 12 8 8 7 5 4 3 4 4 4 3 5 7 10 12 16 18 21 28 34 41 43
23 23 25 28 26 22 21 22 21 22 21 18 16 14 15 15 16 17 17 16 16 16 16 14 13 11 11 7 7 7 5 5 4 3 2 0 4 8 11 17 23 27 28 37
33 31 32 30 26 25 21 19 17 20 17 13 15 16 16 16 16 18 18 17 18 19 19 18 17 18 14 10 8 8 7 6 6 6 5 5 6 8 9 14 18 21 27 33
23 29 29 26 26 24 22 18 18 17 13 14 17 22 21 21 21 20 20 19 21 21 19 20 19 16 16 16 11 12 12 12 9 4 3 4 7 9 12 7 9 13 12 16
22 20 17 16 19 19 16 19 15 18 13 21 23 25 30 28 23 22 22 22 24 23 23 22 20 16 14 14 15 14 16 16 14 12 10 6 4 5 6 10 8 5 8 9
19 14 10 9 8 11 7 12 19 17 13 22 24 23 21 23 22 23 22 19 21 22 23 23 20 18 16 14 12 12 17 20 19 18 13 11 8 9 8 6 5 4 4 5
22 21 28 28 25 25 28 28 28 29 19 24 29 30 27 26 23 22 24 26 26 24 22 22 18 21 19 14 13 11 13 15 18 18 17 18 18 18 17 15 13 9 6 7
44 39 47 39 40 39 39 36 34 32 27 29 30 32 31 25 22 26 31 32 27 24 23 27 22 20 16 16 18 18 19 17 14 14 15 15 15 16 17 16 15 12 8 3
42 45 43 39 38 41 39 37 35 35 32 33 34 35 35 30 29 29 32 34 30 27 30 30 25 21 19 18 19 21 21 19 19 17 20 20 19 19 19 16 13 13 8 5
39 37 36 32 32 32 30 30 32 32 30 28 28 26 26 30 30 34 31 28 26 29 27 27 25 23 21 20 21 21 20 21 20 21 21 20 21 20 20 20 21 17 9 0
30 30 29 28 30 31 30 28 29 31 29 29 27 27 30 27 24 25 27 26 25 23 22 23 19 20 22 22 20 19 19 19 19 22 21 19 18 18 18 18 18 18 20 20
25 23 22 21 22 25 25 22 23 24 25 26 24 22 21 20 21 20 19 22 22 20 22 20 18 20 22 19 19 20 20 17 16 17 16 17 16 15 16 16 17 16 13 13
20 19 20 20 20 18 17 17 17 19 21 22 21 20 20 20 19 17 17 17 16 17 17 16 17 20 18 17 16 17 16 17 19 18 17 16 16 15 17 18 19 18 18 18
19 17 16 16 15 13 13 13 16 16 16 16 16 16 16 15 15 15 15 15 14 15 13 15 15 15 15 16 15 14 14 15 16 16 16 15 15 16 17 16 15 15 16 16
13 13 11 11 13 14 14 13 13 14 13 13 13 13 13 13 13 13 14 13 14 13 14 14 14 15 13 13 12 12 12 12 15 13 12 12 12 12 14 14 15 15 15 15

GFSNGP_850_spd_027.txt.gz
Wind_Speed
26 18 20 28 29 30 30 24 24 15 19 15 13 11 13 14 11 6 7 10 13 15 18 19 23 27 34 36 36 37 41 43 48 46 45 43 45 49 47 45 44 44 45 45
23 24 5 14 26 32 30 27 24 23 14 18 18 13 11 9 7 6 7 8 11 13 13 17 24 25 27 34 35 36 39 46 44 45 44 45 45 46 47 47 47 46 47 48
17 22 11 16 20 20 24 27 22 22 19 9 6 4 4 7 10 11 12 12 14 16 15 17 19 19 25 29 32 37 42 40 44 43 45 44 42 43 49 51 48 51 52 51
12 18 20 14 19 14 14 14 16 12 10 9 6 10 14 14 15 14 14 15 14 16 18 18 20 19 22 22 29 34 38 43 42 45 43 45 46 48 46 46 50 49 51 52
10 16 7 17 14 21 22 20 14 14 13 10 12 12 18 21 23 23 21 20 18 18 19 19 19 15 17 19 24 28 33 41 44 42 43 45 48 47 45 45 45 48 46 46
8 13 18 4 10 2 3 12 20 18 15 11 10 10 7 10 11 13 18 15 15 18 18 18 20 22 23 24 25 30 32 34 39 41 44 46 46 44 42 41 43 40 43 47
13 8 10 5 12 13 12 6 17 5 4 7 6 9 20 19 18 16 17 17 14 13 13 16 15 17 21 25 27 32 24 26 35 38 42 42 41 39 39 38 35 39 40 41
14 16 17 5 7 5 8 11 16 13 11 11 11 14 18 20 20 19 19 18 17 17 15 13 13 14 18 23 26 23 26 26 31 33 32 31 37 35 35 34 35 39 37 40
13 15 4 11 14 5 4 9 9 12 12 11 14 15 17 19 18 16 15 13 12 13 13 8 8 11 15 18 18 20 22 24 26 27 28 30 29 31 28 30 30 31 33 37
14 17 14 18 14 12 13 15 14 16 18 16 17 17 19 19 17 12 8 7 7 7 7 4 2 3 6 7 9 14 16 20 21 21 22 22 24 22 24 25 26 28 30 32
19 19 23 25 22 20 24 20 22 20 18 20 20 20 19 17 15 10 8 6 3 2 4 3 3 3 2 3 5 9 11 13 14 15 18 18 20 21 21 23 23 24 24 25
14 17 17 22 26 27 26 23 22 21 24 23 23 23 21 19 15 10 6 3 5 7 5 6 6 6 5 2 5 6 8 9 10 11 12 13 14 15 21 23 19 24 30 30
24 32 32 26 22 21 28 19 22 25 29 28 24 21 20 16 12 12 11 7 6 8 8 8 8 9 6 5 6 6 4 8 3 8 8 9 10 10 12 10 13 21 24 32
27 18 27 28 19 23 21 20 24 29 30 28 26 23 19 14 10 8 8 9 9 10 11 10 11 11 12 9 10 9 8 7 5 3 2 1 2 3 3 5 7 8 15 23
35 31 30 25 25 24 24 25 22 22 25 22 22 23 20 18 15 14 14 14 14 14 13 15 15 15 13 12 10 10 10 5 6 4 4 3 3 2 3 4 6 6 9 13
31 25 19 24 26 31 30 30 26 26 23 23 24 24 25 18 20 18 16 14 14 15 16 16 16 16 16 16 14 13 12 12 8 4 1 1 3 5 5 4 5 8 8 10
20 14 15 18 24 26 28 27 23 23 19 18 20 20 37 26 28 23 23 19 17 18 19 17 15 15 14 15 14 14 13 13 16 10 8 6 5 3 5 5 6 6 8 11
12 15 16 21 21 23 20 18 16 10 13 16 16 32 28 33 28 25 24 23 23 23 21 19 16 15 15 13 11 12 15 18 19 18 14 12 11 10 9 9 8 6 5 11
11 6 14 27 23 26 23 32 30 28 30 31 29 35 33 37 32 31 30 30 28 28 23 19 20 18 19 18 14 13 14 16 14 15 12 12 13 14 16 19 16 16 13 11
46 43 45 39 39 43 36 43 42 36 37 41 38 41 38 35 34 37 40 40 32 24 21 21 18 18 18 17 18 17 16 18 17 14 12 11 14 13 14 13 12 12 11 13
41 42 46 45 43 38 38 44 47 44 41 47 41 39 40 37 36 40 42 40 29 26 24 26 20 19 20 17 18 19 20 19 17 17 16 16 18 18 19 18 16 13 10 10
35 37 39 39 39 38 37 38 37 34 34 33 30 32 35 34 33 37 35 31 27 25 23 23 23 24 21 19 20 18 18 17 16 16 16 17 19 21 20 19 19 21 22 20
30 29 28 30 30 31 33 33 32 31 33 30 29 28 28 27 25 24 26 23 24 21 20 21 22 24 21 19 17 17 17 15 16 16 19 20 19 19 20 20 20 18 17 18
23 23 22 21 23 26 26 26 26 27 30 30 27 24 22 20 21 19 19 19 22 21 19 18 19 22 18 17 16 17 17 16 15 14 14 14 13 14 15 14 17 19 21 23
19 18 18 18 18 18 17 17 18 19 20 20 20 20 19 19 17 15 16 16 17 14 13 14 19 18 16 15 15 14 13 15 14 14 14 14 14 14 13 14 15 15 16 17
18 15 14 16 16 15 14 14 16 15 14 15 16 15 15 15 15 14 14 15 14 13 13 14 16 14 13 13 13 11 11 11 11 12 12 12 12 12 13 14 15 15 15 15
12 14 12 11 13 13 13 13 13 13 13 13 13 14 14 13 13 13 13 12 12 12 13 14 14 15 13 12 11 11 10 10 14 11 10 10 10 11 11 11 12 12 13 15

GFSNGP_850_spd_030.txt.gz
Wind_Speed
29 24 22 26 27 29 30 21 22 18 18 15 11 9 9 11 7 15 21 16 21 28 40 43 41 44 44 43 43 42 43 43 44 44 45 46 45 46 46 46 48 47 46 46
17 22 19 18 31 29 29 29 23 24 18 19 16 15 13 17 11 10 11 7 6 7 7 12 28 36 42 43 40 43 44 46 46 44 43 45 45 45 47 49 48 47 49 48
16 17 21 19 16 28 26 24 24 20 17 17 20 17 16 16 11 7 3 0 2 5 9 11 14 23 33 40 39 37 42 45 47 46 47 47 47 48 49 49 48 49 49 49
11 13 18 12 13 13 21 23 23 18 16 13 14 20 17 12 9 6 6 8 8 11 15 15 18 22 25 26 32 37 40 42 39 45 47 48 48 49 49 49 51 51 51 51
6 8 9 13 14 16 9 15 20 21 16 12 14 12 11 7 2 4 8 12 12 14 17 20 22 24 32 32 35 35 36 44 46 42 45 47 50 50 48 48 48 51 51 50
9 6 12 6 14 4 16 9 21 11 0 5 7 4 9 15 13 10 9 6 6 6 7 15 13 21 13 28 32 31 30 34 41 43 48 49 49 49 48 47 46 44 47 48
8 6 3 13 19 10 13 6 19 26 10 4 8 13 12 12 13 11 11 11 10 11 6 12 7 11 13 19 24 28 30 31 32 36 41 45 45 42 44 43 41 42 43 42
11 9 2 25 12 8 9 17 21 22 25 20 18 14 13 15 18 16 14 12 11 11 12 9 15 18 20 20 26 22 25 30 31 28 34 38 39 38 37 38 38 39 38 39
12 11 5 13 8 8 12 13 15 17 16 15 13 15 15 17 20 21 16 10 7 9 8 8 8 11 17 19 19 23 17 26 27 25 29 31 30 36 35 35 36 36 36 37
9 16 11 11 13 11 11 10 13 11 14 14 15 16 20 21 19 25 18 10 10 9 8 6 4 5 8 10 12 17 18 19 21 22 24 26 28 23 28 31 31 32 28 25
15 15 19 18 17 16 16 16 17 13 15 12 14 17 18 17 17 21 19 11 7 7 4 2 3 9 11 12 11 9 14 15 16 16 18 19 21 25 21 20 23 22 23 21
13 21 19 20 21 19 22 20 19 19 17 15 15 19 23 19 16 17 18 14 10 6 3 4 7 7 1 8 11 9 10 10 11 12 14 14 15 14 22 17 17 25 25 23
14 25 28 27 26 24 19 20 19 20 18 18 19 20 23 21 16 17 18 14 11 10 12 12 10 3 2 3 10 15 11 15 10 13 4 19 10 16 13 20 24 21 22 26
40 32 32 25 23 21 18 20 20 16 18 21 22 24 23 18 16 17 13 9 7 9 9 10 6 4 3 4 8 11 12 13 11 8 5 7 9 8 6 7 5 9 16 19
46 39 35 29 26 24 20 19 18 20 21 22 19 22 18 21 20 16 15 10 10 10 11 3 4 4 5 8 13 17 15 14 9 11 11 7 7 7 4 2 4 8 9 11
29 36 32 29 29 27 23 22 23 21 23 24 27 28 21 20 22 15 10 14 16 11 12 10 6 7 6 10 9 8 12 16 15 12 10 8 6 5 4 3 1 5 5 7
14 16 20 18 16 21 25 23 25 27 27 26 27 26 25 19 14 10 13 16 20 17 17 15 9 10 7 10 12 12 13 18 14 14 11 10 9 9 7 5 4 5 6 7
12 5 3 8 14 16 19 22 23 21 23 20 21 20 18 15 20 16 27 24 29 24 21 12 9 11 13 13 13 16 16 16 16 16 15 15 15 14 13 13 11 6 2 5
39 21 15 17 5 13 14 11 14 13 14 20 25 29 34 34 31 25 35 37 33 29 20 13 11 17 23 24 20 20 17 13 19 20 22 21 19 17 15 14 13 12 10 10
47 46 45 43 39 29 29 36 39 36 33 31 36 42 37 38 36 37 40 38 32 28 21 21 24 23 16 18 19 16 14 14 14 15 14 16 15 16 16 17 15 12 12 12
39 37 37 37 35 37 35 40 46 42 41 40 44 44 41 40 39 32 35 31 27 27 26 29 30 30 23 21 22 19 16 16 16 17 17 18 19 18 17 17 18 19 21 20
28 33 37 37 37 36 35 38 38 33 33 35 36 35 36 34 35 36 33 28 23 24 26 28 27 26 24 24 27 23 19 17 18 18 18 18 18 22 24 22 21 20 19 18
23 20 25 25 31 31 34 33 31 30 30 29 29 28 28 27 25 26 27 22 18 17 18 21 21 21 23 22 21 20 16 17 17 17 23 21 16 17 20 20 20 21 22 23
19 18 17 16 21 22 21 22 22 24 26 28 26 22 20 19 20 17 15 19 17 13 13 14 20 20 21 19 18 17 17 17 15 17 16 15 14 14 14 14 16 16 16 18
17 12 16 17 17 16 18 16 16 17 18 19 18 17 17 18 15 16 14 16 14 13 14 19 18 17 17 16 15 13 15 18 17 15 14 15 13 13 14 14 15 14 17 19
13 12 11 14 14 14 14 13 14 16 14 14 16 15 15 15 14 13 14 13 14 15 15 17 17 15 15 15 13 14 13 13 16 14 12 12 11 12 12 12 12 14 14 15
11 13 12 12 12 12 12 12 14 14 14 13 14 14 14 15 14 12 12 12 13 14 14 14 15 15 14 13 14 14 14 16 17 13 11 11 10 12 13 12 12 9 10 12

GFSNGP_850_spd_033.txt.gz
Wind_Speed
14 14 13 17 25 22 23 13 17 12 7 5 2 7 7 16 16 24 28 44 46 48 48 51 51 51 50 48 46 46 44 44 45 43 41 41 42 42 41 43 46 46 45 44
5 11 14 18 26 23 21 19 10 14 8 8 7 23 21 24 25 26 22 25 33 41 50 55 54 50 50 50 47 45 45 41 39 40 40 42 43 43 44 43 42 43 45 46
5 5 6 3 14 24 18 18 16 13 8 6 7 12 15 25 23 21 23 22 20 18 33 37 46 51 50 49 47 47 47 45 43 41 39 40 39 41 44 44 44 44 45 46
5 5 2 7 4 11 18 9 19 14 11 12 9 21 23 27 26 18 17 16 15 12 10 13 10 34 47 48 48 46 47 47 46 46 44 41 41 41 41 42 44 44 45 45
4 2 3 4 12 11 4 11 23 11 4 14 28 36 26 29 28 25 20 15 10 8 6 3 12 13 28 42 48 48 45 46 47 47 46 45 46 45 43 43 42 44 45 46
4 4 2 12 26 32 8 11 20 20 19 14 22 11 5 25 24 22 19 14 7 3 5 6 7 20 28 32 35 45 46 44 42 40 44 45 45 46 45 45 45 43 44 44
4 3 6 18 24 19 7 3 17 25 24 31 17 14 23 23 26 21 17 14 5 1 4 6 3 0 11 26 36 35 35 35 37 40 43 44 41 42 45 46 45 46 45 44
1 4 4 34 22 14 6 19 22 27 31 27 31 30 24 22 25 29 21 15 10 5 6 8 10 9 6 8 10 21 32 35 32 31 32 37 40 40 40 41 42 43 42 41
6 2 14 13 19 22 23 20 25 24 27 25 30 30 28 23 23 25 26 21 11 8 10 8 3 9 13 11 12 13 20 20 22 29 30 28 28 34 37 37 36 38 37 36
7 12 15 11 8 22 22 19 20 22 21 23 23 24 25 25 23 22 22 20 14 11 17 7 4 7 11 16 19 22 21 20 25 23 25 23 22 26 28 32 33 32 32 31
9 9 17 16 24 28 30 22 13 15 16 14 15 18 20 21 22 23 17 16 13 11 16 11 11 9 10 13 15 15 14 17 19 22 22 20 19 22 23 23 23 25 24 23
7 23 9 21 29 29 28 26 21 25 15 15 10 13 17 19 19 20 23 18 15 13 12 14 14 16 13 14 13 12 14 16 18 18 18 17 15 19 23 16 21 19 20 21
29 30 33 30 29 25 21 20 19 19 20 18 18 16 18 25 22 21 21 16 16 15 15 16 14 15 13 10 9 10 12 14 12 14 18 17 18 21 26 23 19 20 24 22
34 32 31 27 17 17 21 17 20 16 12 14 15 15 14 18 18 18 19 13 15 12 12 13 14 13 7 5 5 11 7 9 16 16 11 22 19 21 24 22 20 16 13 11
33 33 40 34 22 20 18 17 19 16 13 15 14 17 20 18 16 19 18 14 13 12 8 4 5 6 7 5 4 6 9 13 11 12 13 15 16 18 18 15 11 8 5 6
25 20 26 28 20 17 18 19 20 18 17 17 18 17 20 20 19 18 17 10 10 11 10 5 5 5 4 3 9 7 9 11 12 17 16 19 17 18 16 13 10 4 2 2
17 9 8 9 13 16 15 15 16 17 17 21 23 23 21 20 22 16 8 15 17 13 11 12 11 9 11 9 4 11 14 15 15 15 13 15 16 18 17 14 12 9 4 2
38 26 18 11 8 12 13 12 16 15 16 19 24 22 22 20 14 12 15 15 13 15 15 11 8 14 13 12 12 13 14 13 12 11 10 10 9 8 9 8 7 6 2 2
47 42 43 39 15 7 10 9 2 4 6 7 8 1 7 10 16 14 16 15 12 11 9 12 15 16 22 22 19 16 16 20 21 22 19 17 15 15 15 13 11 9 7 5
43 39 43 46 38 31 25 20 16 19 22 19 22 25 28 29 30 31 25 33 32 30 21 22 22 23 24 18 20 22 19 20 20 19 16 15 14 17 17 14 13 13 12 11
33 38 36 35 38 36 35 31 36 35 32 32 34 33 34 32 34 36 34 34 30 33 34 27 38 34 33 32 26 22 20 17 17 21 20 21 20 19 18 17 17 16 16 16
21 27 28 31 30 31 30 30 33 31 32 31 30 30 34 34 32 36 35 31 27 30 30 30 32 35 34 35 33 28 26 20 20 22 23 22 22 21 20 19 18 19 19 18
10 17 18 22 24 24 25 30 31 30 30 25 27 29 29 28 30 36 34 28 28 28 28 28 24 22 23 24 26 24 21 22 23 24 22 21 21 23 19 16 16 16 16 16
14 13 11 13 17 21 23 21 22 22 22 27 28 23 24 24 24 22 21 19 17 15 21 22 19 21 19 17 20 22 19 15 14 16 17 17 14 10 14 15 14 12 10 11
10 15 16 18 12 12 17 17 15 10 18 17 15 23 18 19 18 19 17 17 15 12 14 14 16 14 16 10 10 13 21 21 18 20 20 17 13 11 11 9 8 7 8 12
13 9 13 15 13 15 14 17 14 17 13 16 15 14 15 16 17 15 12 12 13 18 16 19 18 18 18 17 12 10 14 16 14 15 17 17 17 15 9 6 7 11 12 15
10 13 14 18 15 11 9 12 14 13 13 15 16 16 15 15 13 14 14 13 16 16 17 17 17 15 16 14 12 12 16 13 13 13 12 11 12 17 17 8 7 8 12 15

GFSNGP_850_spd_036.txt.gz
Wind_Speed
18 24 21 20 6 19 14 14 15 12 7 10 11 12 6 20 29 34 45 51 52 51 51 54 53 57 55 54 53 50 46 44 43 40 38 37 38 39 40 41 40 41 42 45
11 12 15 11 7 7 18 15 7 8 9 6 6 19 10 15 28 32 43 50 54 55 54 58 55 56 55 54 51 49 44 42 39 39 38 38 37 36 36 38 39 39 42 43
6 9 7 2 10 7 14 8 13 6 9 5 9 9 15 12 28 29 34 48 51 52 58 61 58 56 55 50 49 47 43 40 39 37 38 37 36 37 37 36 36 38 40 41
5 9 7 7 20 14 20 19 21 14 10 13 17 23 35 30 28 38 27 30 35 41 41 43 42 46 47 45 46 45 44 40 39 39 37 35 35 37 37 35 36 36 38 40
2 4 1 13 16 14 4 13 20 17 10 16 26 39 27 28 26 28 33 34 29 30 36 36 36 38 40 41 42 44 45 43 42 40 38 36 36 34 32 32 32 33 33 35
4 2 5 11 24 27 8 14 21 21 18 10 2 13 4 24 26 27 26 27 28 28 27 23 24 26 29 39 43 44 45 43 42 42 40 40 37 36 34 35 35 35 36 36
1 4 5 20 30 19 9 3 17 22 24 26 15 11 18 28 32 32 32 28 23 23 22 20 16 13 24 29 37 37 40 39 40 41 39 38 39 38 39 39 39 40 39 39
5 5 4 25 15 13 12 14 22 24 25 24 24 32 33 31 31 30 30 28 23 20 18 14 12 10 12 13 27 36 35 35 39 40 38 37 37 38 38 39 40 40 41 41
4 3 5 8 11 22 29 24 18 21 22 23 30 33 31 31 29 27 28 27 25 24 20 17 11 7 6 6 8 10 15 26 33 36 35 34 33 33 33 33 35 37 37 38
3 6 10 9 12 19 27 30 26 19 17 17 22 24 28 28 27 27 24 21 17 15 16 15 11 7 4 0 4 9 13 16 19 20 21 28 32 31 28 28 30 33 34 32
4 6 9 9 13 19 26 26 28 25 23 21 21 22 23 25 23 25 23 21 17 11 8 6 5 5 7 8 7 6 10 15 19 24 24 24 27 27 26 25 24 23 22 23
4 15 13 28 21 20 24 26 25 23 20 20 21 21 22 21 20 21 22 18 13 9 6 7 6 6 10 12 12 12 12 12 11 13 17 19 24 24 24 22 21 21 21 21
17 17 21 33 34 31 27 23 16 20 11 10 13 15 16 15 15 14 15 15 11 10 6 6 6 6 9 15 12 9 10 12 12 14 16 19 21 24 26 23 21 22 23 22
18 21 18 19 20 16 12 15 9 13 13 10 10 9 13 14 12 15 16 14 12 10 8 6 7 7 8 9 10 6 6 7 10 15 16 20 22 21 20 19 23 20 18 15
25 21 25 27 29 23 17 16 12 13 12 12 12 13 12 13 15 15 16 13 9 9 3 3 5 6 5 6 9 5 4 5 8 11 16 17 22 24 23 21 20 16 13 9
28 21 25 17 13 21 19 26 16 11 9 14 14 15 17 16 13 15 16 14 6 5 5 3 1 3 6 7 6 5 7 9 11 12 14 15 17 23 22 21 18 15 12 8
29 28 25 13 6 10 13 13 12 9 7 9 13 16 18 18 18 19 14 6 10 10 9 7 6 9 9 11 8 10 11 13 13 16 16 19 22 25 24 21 16 11 8 6
35 34 35 23 7 1 4 2 7 8 8 11 14 16 18 17 16 18 12 8 11 9 7 10 12 11 12 16 12 11 16 17 17 17 19 20 21 20 19 15 12 8 6 3
35 35 42 42 35 26 17 11 6 6 7 3 6 3 1 3 8 10 13 13 14 12 8 12 13 14 16 19 17 18 20 19 18 18 16 16 16 15 14 12 10 9 8 5
32 35 34 37 42 39 33 27 25 21 16 7 5 2 6 9 9 9 11 12 14 14 15 15 17 19 17 19 22 21 20 22 22 19 14 15 16 17 15 13 11 10 9 8
26 28 30 33 32 30 32 31 30 30 28 26 24 23 20 17 21 24 23 24 24 25 19 19 24 26 24 22 23 28 28 25 23 21 19 20 21 20 19 16 14 12 12 11
15 18 23 26 30 31 33 33 28 24 27 27 28 28 26 26 29 32 30 32 26 31 31 29 29 26 29 29 26 27 25 27 28 26 25 23 22 21 20 18 18 17 15 14
7 11 14 17 21 23 23 24 25 30 32 28 26 21 22 21 22 25 33 29 28 27 36 32 29 30 27 25 19 20 24 28 26 24 22 20 18 19 17 15 13 13 13 12
8 7 7 9 13 15 16 16 19 16 23 26 22 17 21 26 20 20 21 24 24 29 29 23 29 26 23 26 24 21 21 22 21 22 21 18 15 14 13 12 10 11 12 13
13 10 7 2 5 8 12 14 13 14 13 12 17 20 20 15 12 20 25 10 13 18 24 21 18 18 21 25 23 23 21 21 20 22 20 17 15 14 12 11 10 11 13 14
9 12 13 12 8 9 13 13 13 12 12 13 12 11 7 13 17 15 9 22 23 20 21 18 17 16 15 16 18 19 22 22 21 19 15 14 15 14 11 9 8 9 11 14
8 7 6 10 7 5 11 10 8 10 12 11 9 13 16 15 12 14 16 12 15 15 20 18 18 18 16 12 13 15 15 16 14 14 13 13 14 14 11 7 5 9 13 16

GFSNGP_850_spd_042.txt.gz
Wind_Speed
21 21 17 17 16 14 5 7 11 8 17 13 14 10 13 16 18 22 25 30 36 42 45 46 47 50 49 47 45 44 44 44 45 43 45 42 40 38 36 34 32 31 32 34
11 17 18 19 17 17 14 8 8 6 6 3 5 6 2 6 10 21 29 38 41 42 47 48 51 55 52 50 46 43 42 41 39 39 41 41 39 37 36 35 33 33 34 34
6 5 10 8 11 5 7 10 2 8 2 9 2 4 6 10 13 21 23 30 39 47 49 52 54 55 53 50 46 43 40 38 39 38 38 37 37 37 36 36 33 34 34 34
6 4 10 6 4 14 17 15 14 9 13 11 5 10 14 19 16 20 18 21 33 46 50 51 51 51 49 47 46 41 37 36 37 38 36 36 38 37 37 36 35 35 34 34
3 4 9 3 6 5 5 10 18 15 14 12 13 8 3 26 22 17 16 18 34 40 46 45 46 46 47 44 43 41 36 37 37 36 35 36 37 37 36 36 35 35 33 32
2 6 5 4 11 12 6 5 19 20 15 15 11 3 6 28 22 19 8 9 21 31 32 35 39 42 44 43 43 40 36 36 36 34 32 32 32 33 32 32 32 32 33 31
11 5 3 12 14 9 4 2 19 22 17 18 12 6 15 23 27 25 21 10 18 23 28 31 34 36 39 40 41 38 32 31 29 29 29 29 29 29 29 28 26 28 27 24
3 4 4 24 5 7 2 9 14 23 25 15 24 28 29 31 31 35 31 21 19 25 26 27 28 28 30 30 30 29 27 27 25 26 27 27 26 24 24 24 25 25 24 24
4 4 11 13 17 13 11 7 19 23 26 20 25 27 36 35 35 35 35 33 30 22 21 26 26 25 24 26 28 29 27 25 23 23 24 24 23 23 24 24 25 25 25 25
4 7 11 8 7 19 13 14 19 24 26 27 27 29 32 37 37 37 34 29 26 29 31 27 20 20 19 17 17 19 20 21 19 19 19 19 20 22 25 26 25 24 24 26
3 4 13 5 27 25 23 17 16 18 23 26 26 29 30 33 36 36 34 30 23 21 21 21 18 19 17 16 15 12 11 13 17 20 21 22 24 24 25 24 23 23 23 20
1 13 7 14 25 24 26 21 17 16 16 22 23 22 25 28 30 32 33 31 27 20 16 15 12 10 9 9 11 12 11 11 11 12 13 15 18 20 22 21 22 22 20 18
10 22 18 19 19 20 22 21 18 15 13 14 15 20 19 21 25 28 29 29 29 25 17 14 10 9 7 4 3 8 12 13 13 14 14 15 17 18 19 19 19 17 17 15
24 21 12 10 14 22 21 22 21 18 15 13 14 12 16 21 24 27 26 24 24 21 17 12 10 10 11 9 4 0 4 7 10 13 13 14 15 14 13 11 12 16 16 15
30 25 21 18 15 14 14 13 15 18 15 12 11 14 18 21 21 22 21 22 20 17 15 10 9 9 10 10 7 4 5 3 6 7 10 11 13 13 12 11 13 11 12 11
25 29 27 28 17 16 13 9 7 13 15 17 17 15 14 16 16 19 21 22 21 19 14 11 8 7 8 8 9 5 5 5 5 4 9 14 16 17 17 16 18 19 16 14
21 25 26 26 26 24 25 14 7 6 7 8 10 6 13 16 17 20 21 20 18 15 12 10 8 9 7 8 6 5 4 2 1 1 2 8 15 17 18 20 20 18 16 14
20 19 19 19 20 21 21 17 16 14 8 6 10 10 10 16 22 23 23 22 20 15 13 14 12 11 9 8 7 5 2 2 2 3 5 10 13 16 19 19 19 18 17 16
19 22 22 20 20 21 22 20 18 14 11 11 11 13 13 13 14 17 18 24 20 17 14 16 16 14 12 12 12 10 7 6 5 7 7 11 15 18 19 20 19 18 16 15
12 15 19 24 26 29 32 25 20 17 15 13 11 10 11 14 16 17 15 12 16 22 19 15 16 18 14 13 15 16 13 11 11 10 9 14 16 19 19 20 19 17 16 13
9 13 15 17 19 25 27 29 31 26 17 14 14 13 12 9 10 12 16 19 17 15 18 18 16 14 18 18 18 22 20 16 16 18 18 20 20 21 23 22 20 19 17 14
4 8 12 15 16 16 16 19 23 27 27 23 16 14 13 16 18 23 26 24 17 16 19 17 14 15 22 25 23 25 21 18 20 19 23 24 23 22 22 20 18 17 16 16
2 3 6 8 10 12 14 12 8 15 22 26 25 23 19 16 19 22 27 29 27 19 9 10 8 12 22 27 25 27 19 25 24 26 29 28 27 25 24 23 22 18 17 15
3 5 7 8 10 12 10 9 12 6 8 15 19 26 26 22 20 19 17 19 24 33 24 13 12 17 19 22 22 20 26 27 33 35 34 33 31 27 24 21 19 16 14 13
5 5 10 8 6 8 8 6 9 10 9 6 12 21 22 28 28 24 22 24 24 23 37 30 18 23 28 33 34 35 34 35 35 33 30 27 26 21 19 19 19 18 16 15
2 7 9 5 6 9 9 7 8 11 12 9 6 7 14 14 18 28 27 26 30 29 28 30 36 31 30 31 29 31 33 28 27 26 26 21 23 19 18 16 14 12 12 10
2 5 4 2 4 7 8 7 9 13 12 8 6 7 7 6 6 18 27 26 23 26 28 30 32 29 31 29 25 20 22 22 22 24 23 22 21 18 16 15 12 12 11 8

GFSNGP_850_spd_045.txt.gz
Wind_Speed
14 20 24 26 26 26 20 23 22 22 22 24 22 23 21 18 13 7 11 16 25 33 38 41 42 45 48 47 47 44 45 45 45 44 44 42 41 37 32 31 32 31 29 30
18 23 23 28 29 26 23 24 19 17 15 2 11 19 17 14 12 15 16 16 18 28 36 40 44 48 46 50 47 45 44 42 41 41 42 41 41 39 37 33 33 33 34 32
21 17 17 22 30 25 21 17 21 22 15 7 4 3 1 5 10 15 17 18 20 25 34 40 43 48 48 47 46 44 42 39 38 37 38 38 37 38 37 35 34 36 35 34
14 15 11 9 8 26 12 7 2 8 3 7 9 6 7 7 11 17 20 22 24 27 33 42 42 41 41 42 47 44 42 39 35 34 34 34 36 37 36 35 36 36 36 36
5 7 12 11 5 23 16 8 10 6 5 2 6 8 6 13 12 17 21 26 28 30 35 38 41 43 44 43 44 43 43 40 37 36 34 35 36 35 35 35 36 36 35 36
4 7 5 5 4 6 8 6 12 10 11 6 5 8 2 16 17 15 15 16 20 24 26 35 40 43 44 45 43 42 43 39 35 33 32 31 30 32 32 32 33 34 35 35
13 8 9 11 11 8 6 4 9 10 13 19 8 4 9 14 17 13 13 15 6 19 27 35 41 43 43 42 40 39 39 38 35 32 33 30 29 30 31 32 32 32 33 33
8 6 9 23 5 4 6 8 6 12 18 16 18 15 20 28 30 27 24 19 11 16 25 29 31 33 36 38 36 36 35 32 30 29 30 30 31 31 31 31 32 32 31 31
2 1 16 8 19 14 10 9 13 16 19 15 17 26 35 37 35 35 35 30 22 17 20 23 28 29 30 30 32 29 27 28 27 26 28 29 28 29 29 29 29 29 28 28
3 4 13 10 16 16 14 12 12 15 19 21 19 23 27 39 43 40 37 36 28 26 24 19 16 19 19 22 25 26 28 28 26 25 25 25 26 26 28 29 29 28 26 24
4 8 17 17 20 20 18 14 14 13 16 23 26 23 22 30 39 38 39 38 34 31 29 25 21 17 13 13 17 17 23 25 26 26 26 27 26 26 26 27 25 25 23 23
3 17 9 13 24 18 19 18 15 16 14 16 20 20 22 26 29 33 35 37 36 32 28 23 19 16 13 12 12 14 14 17 20 23 26 28 28 26 26 26 23 22 23 20
9 23 12 16 15 17 17 18 16 13 15 15 17 18 19 22 23 23 25 31 33 29 24 21 19 15 11 7 6 8 9 12 8 8 25 20 27 26 26 27 25 23 22 20
29 27 20 24 19 19 18 16 14 11 10 10 13 16 18 19 20 22 25 25 24 24 21 18 18 17 15 11 6 10 4 11 10 16 30 20 17 16 17 17 17 21 20 17
28 29 25 19 20 26 21 18 13 10 12 12 14 16 19 19 18 20 22 23 22 19 18 17 14 14 15 16 12 8 6 13 22 24 18 13 12 13 14 16 16 18 20 20
22 22 23 24 23 26 23 22 19 15 14 10 11 14 14 15 15 17 20 22 24 24 21 18 14 12 11 11 11 9 9 10 6 8 9 10 11 13 15 16 18 21 21 20
23 25 23 24 25 25 24 22 20 14 10 11 11 12 13 15 18 19 18 21 21 20 20 19 17 13 10 8 9 10 8 7 6 5 6 11 13 15 15 16 17 18 20 20
18 20 23 22 22 22 24 23 22 21 21 17 15 13 14 15 18 19 21 21 21 20 19 17 17 17 12 10 6 4 3 2 2 2 4 9 12 14 15 16 17 19 18 16
14 17 19 22 23 25 25 25 23 22 21 19 18 18 16 16 16 18 16 17 22 22 20 20 15 14 17 12 8 6 9 8 7 6 5 7 9 13 16 18 19 17 17 18
11 14 15 16 22 26 24 22 23 26 21 19 18 20 19 17 17 17 17 15 18 22 25 24 22 16 15 17 12 10 12 14 13 12 9 11 14 16 17 18 18 18 18 16
5 10 12 15 16 16 19 20 21 23 24 22 17 17 20 20 19 16 16 16 16 19 21 21 18 17 17 15 14 12 15 18 17 15 15 14 18 22 23 23 22 21 20 18
3 6 9 11 15 17 18 16 15 19 19 20 23 19 15 16 15 17 23 24 19 17 21 20 17 15 18 16 18 19 19 20 20 19 18 19 21 22 22 22 21 20 19 17
3 4 6 9 11 13 13 15 14 12 16 18 20 22 21 21 18 19 19 22 23 15 17 17 16 12 10 16 20 23 26 25 25 26 25 23 23 24 24 24 22 20 17 15
4 5 6 5 9 9 8 9 14 14 13 15 20 17 25 21 22 19 19 19 27 21 22 15 4 6 9 10 14 21 25 25 24 24 31 31 29 28 27 25 25 23 21 16
4 3 6 4 6 8 10 10 12 14 13 9 8 13 15 19 19 19 22 23 24 28 38 30 15 12 18 20 19 21 23 25 30 33 32 34 31 26 27 23 23 21 19 18
2 5 7 3 5 7 8 9 9 12 10 7 6 3 5 10 16 17 18 24 26 30 28 29 40 35 32 33 36 37 40 36 35 36 31 30 28 22 23 19 15 16 12 10
1 5 5 4 6 8 7 7 8 11 11 9 5 4 2 3 9 15 16 17 25 30 31 30 34 35 35 33 32 31 30 30 31 28 28 28 24 20 18 15 11 11 9 7